| time (UTC) | temp F | wind direction | speed MPH | gust MPH | rain 1hr in | rain 24hr in | rain mn in | humidity % | barometer mb |
| 20260510231517 | 66 | 40 | 1.0 | 4.0 | 0.00 | 0.00 | 0.00 | 37 | 1019.4 |
| 20260510230517 | 66 | 44 | 2.0 | 4.0 | 0.00 | 0.00 | 0.00 | 37 | 1019.5 |
| 20260510225517 | 66 | 37 | 2.0 | 4.0 | 0.00 | 0.00 | 0.00 | 37 | 1019.5 |
| 20260510224518 | 66 | 46 | 2.0 | 5.0 | 0.00 | 0.00 | 0.00 | 39 | 1019.2 |
| 20260510223518 | 67 | 50 | 3.0 | 5.0 | 0.00 | 0.00 | 0.00 | 35 | 1019.3 |
| 20260510222518 | 67 | 43 | 3.0 | 6.0 | 0.00 | 0.00 | 0.00 | 37 | 1019.1 |
| 20260510221518 | 67 | 42 | 3.0 | 7.0 | 0.00 | 0.00 | 0.00 | 36 | 1019.1 |
| 20260510220516 | 67 | 48 | 2.0 | 5.0 | 0.00 | 0.00 | 0.00 | 36 | 1019.1 |
| 20260510215515 | 67 | 26 | 2.0 | 5.0 | 0.00 | 0.00 | 0.00 | 36 | 1019.1 |
| 20260510214516 | 67 | 28 | 3.0 | 6.0 | 0.00 | 0.00 | 0.00 | 35 | 1019.0 |
| 20260510213516 | 67 | 37 | 4.0 | 8.0 | 0.00 | 0.00 | 0.00 | 34 | 1018.9 |
| 20260510212516 | 68 | 15 | 3.0 | 5.0 | 0.00 | 0.00 | 0.00 | 35 | 1018.5 |
| 20260510211516 | 68 | 38 | 3.0 | 8.0 | 0.00 | 0.00 | 0.00 | 35 | 1018.8 |
| 20260510210516 | 68 | 12 | 2.0 | 4.0 | 0.00 | 0.00 | 0.00 | 35 | 1018.9 |
| 20260510205516 | 68 | 49 | 3.0 | 5.0 | 0.00 | 0.00 | 0.00 | 36 | 1019.1 |
| 20260510204517 | 68 | 12 | 2.0 | 5.0 | 0.00 | 0.00 | 0.00 | 37 | 1018.8 |
| 20260510203517 | 68 | 27 | 2.0 | 6.0 | 0.00 | 0.00 | 0.00 | 36 | 1018.7 |
| 20260510202517 | 68 | 10 | 1.0 | 3.0 | 0.00 | 0.00 | 0.00 | 35 | 1019.1 |
| 20260510201517 | 67 | 49 | 3.0 | 6.0 | 0.00 | 0.00 | 0.00 | 36 | 1019.0 |
| 20260510200517 | 67 | 48 | 3.0 | 7.0 | 0.00 | 0.00 | 0.00 | 37 | 1019.4 |
| 20260510195517 | 67 | 42 | 2.0 | 5.0 | 0.00 | 0.00 | 0.00 | 35 | 1019.4 |
| 20260510194517 | 68 | 352 | 1.0 | 3.0 | 0.00 | 0.00 | 0.00 | 36 | 1019.1 |
| 20260510193517 | 67 | 47 | 2.0 | 4.0 | 0.00 | 0.00 | 0.00 | 39 | 1018.8 |
| 20260510192517 | 67 | 49 | 2.0 | 6.0 | 0.00 | 0.00 | 0.00 | 38 | 1018.8 |
| 20260510191518 | 66 | 60 | 2.0 | 4.0 | 0.00 | 0.00 | 0.00 | 38 | 1018.8 |
| 20260510190518 | 66 | 1 | 1.0 | 4.0 | 0.00 | 0.00 | 0.00 | 38 | 1018.9 |
| 20260510185516 | 65 | 45 | 1.0 | 5.0 | 0.00 | 0.00 | 0.00 | 39 | 1019.2 |
| 20260510184516 | 65 | 50 | 4.0 | 8.0 | 0.00 | 0.00 | 0.00 | 39 | 1019.4 |
| 20260510183516 | 65 | 24 | 2.0 | 4.0 | 0.00 | 0.00 | 0.00 | 40 | 1018.3 |
| 20260510182515 | 64 | 43 | 4.0 | 7.0 | 0.00 | 0.00 | 0.00 | 40 | 1018.9 |
| 20260510181516 | 64 | 43 | 5.0 | 10.0 | 0.00 | 0.00 | 0.00 | 39 | 1018.9 |
| 20260510180516 | 63 | 38 | 4.0 | 7.0 | 0.00 | 0.00 | 0.00 | 41 | 1018.9 |
| 20260510175516 | 63 | 46 | 4.0 | 8.0 | 0.00 | 0.00 | 0.00 | 40 | 1018.8 |
| 20260510174516 | 63 | 44 | 5.0 | 9.0 | 0.00 | 0.00 | 0.00 | 40 | 1019.4 |
| 20260510173517 | 63 | 48 | 6.0 | 10.0 | 0.00 | 0.00 | 0.00 | 39 | 1019.0 |
| 20260510172516 | 63 | 47 | 5.0 | 8.0 | 0.00 | 0.00 | 0.00 | 43 | 1019.2 |
| 20260510171517 | 62 | 47 | 5.0 | 8.0 | 0.00 | 0.00 | 0.00 | 43 | 1018.6 |
| 20260510170517 | 62 | 44 | 5.0 | 7.0 | 0.00 | 0.00 | 0.00 | 43 | 1019.7 |
| 20260510165517 | 62 | 46 | 5.0 | 7.0 | 0.00 | 0.00 | 0.00 | 42 | 1019.7 |
| 20260510164517 | 62 | 42 | 5.0 | 8.0 | 0.00 | 0.00 | 0.00 | 40 | 1019.9 |
| 20260510163517 | 63 | 36 | 4.0 | 6.0 | 0.00 | 0.00 | 0.00 | 44 | 1019.3 |
| 20260510162518 | 62 | 43 | 2.0 | 6.0 | 0.00 | 0.00 | 0.00 | 49 | 1017.8 |
| 20260510161518 | 61 | 51 | 2.0 | 4.0 | 0.00 | 0.00 | 0.00 | 50 | 1019.1 |
| 20260510160518 | 61 | 46 | 4.0 | 6.0 | 0.00 | 0.00 | 0.00 | 45 | 1019.4 |
| 20260510155515 | 61 | 45 | 4.0 | 7.0 | 0.00 | 0.00 | 0.00 | 48 | 1019.4 |
| 20260510154515 | 61 | 37 | 2.0 | 4.0 | 0.00 | 0.00 | 0.00 | 51 | 1019.5 |
| 20260510153515 | 61 | 33 | 3.0 | 4.0 | 0.00 | 0.00 | 0.00 | 49 | 1019.1 |
| 20260510152516 | 61 | 43 | 3.0 | 6.0 | 0.00 | 0.00 | 0.00 | 47 | 1019.4 |
| 20260510151516 | 61 | 30 | 3.0 | 5.0 | 0.00 | 0.00 | 0.00 | 47 | 1019.4 |
| 20260510150516 | 61 | 20 | 3.0 | 4.0 | 0.00 | 0.00 | 0.00 | 47 | 1019.4 |
| 20260510145516 | 61 | 28 | 3.0 | 5.0 | 0.00 | 0.00 | 0.00 | 46 | 1019.3 |
| 20260510144516 | 61 | 20 | 2.0 | 3.0 | 0.00 | 0.00 | 0.00 | 49 | 1019.2 |
| 20260510143516 | 61 | 28 | 2.0 | 4.0 | 0.00 | 0.00 | 0.00 | 49 | 1018.7 |
| 20260510142516 | 61 | 27 | 2.0 | 4.0 | 0.00 | 0.00 | 0.00 | 49 | 1018.2 |
| 20260510141517 | 61 | 16 | 2.0 | 3.0 | 0.00 | 0.00 | 0.00 | 49 | 1018.1 |
| 20260510140517 | 60 | 42 | 2.0 | 5.0 | 0.00 | 0.00 | 0.00 | 50 | 1019.0 |
| 20260510135517 | 60 | 44 | 2.0 | 5.0 | 0.00 | 0.00 | 0.00 | 51 | 1018.5 |
| 20260510134517 | 60 | 47 | 3.0 | 5.0 | 0.00 | 0.00 | 0.00 | 50 | 1018.0 |
| 20260510133518 | 59 | 44 | 3.0 | 6.0 | 0.00 | 0.00 | 0.00 | 51 | 1017.9 |
| 20260510132518 | 60 | 38 | 3.0 | 5.0 | 0.00 | 0.00 | 0.00 | 50 | 1017.5 |
| 20260510131518 | 59 | 46 | 3.0 | 7.0 | 0.00 | 0.00 | 0.00 | 52 | 1017.6 |
| 20260510130518 | 59 | 46 | 4.0 | 7.0 | 0.00 | 0.00 | 0.00 | 53 | 1017.3 |
| 20260510125518 | 59 | 45 | 3.0 | 6.0 | 0.00 | 0.00 | 0.00 | 54 | 1017.2 |
| 20260510124518 | 58 | 36 | 2.0 | 5.0 | 0.00 | 0.00 | 0.00 | 55 | 1017.6 |
| 20260510123515 | 58 | 29 | 2.0 | 4.0 | 0.00 | 0.00 | 0.00 | 58 | 1018.0 |
| 20260510122515 | 59 | 48 | 2.0 | 5.0 | 0.00 | 0.00 | 0.00 | 55 | 1017.3 |
| 20260510121516 | 58 | 34 | 1.0 | 3.0 | 0.00 | 0.00 | 0.00 | 56 | 1017.2 |
| 20260510120516 | 57 | 30 | 2.0 | 3.0 | 0.00 | 0.00 | 0.00 | 55 | 1017.6 |
| 20260510115516 | 57 | 2 | 2.0 | 3.0 | 0.00 | 0.00 | 0.00 | 56 | 1017.6 |
| 20260510114516 | 57 | 29 | 2.0 | 3.0 | 0.00 | 0.00 | 0.00 | 57 | 1017.5 |
| 20260510113516 | 57 | 13 | 1.0 | 2.0 | 0.00 | 0.00 | 0.00 | 57 | 1017.4 |
| 20260510112516 | 58 | 48 | 2.0 | 3.0 | 0.00 | 0.00 | 0.00 | 57 | 1016.8 |
| 20260510111516 | 58 | 38 | 2.0 | 4.0 | 0.00 | 0.00 | 0.00 | 56 | 1016.5 |
| 20260510110517 | 59 | 34 | 2.0 | 4.0 | 0.00 | 0.00 | 0.00 | 55 | 1016.4 |
| 20260510105517 | 59 | 28 | 3.0 | 4.0 | 0.00 | 0.00 | 0.00 | 55 | 1016.2 |
| 20260510104517 | 59 | 15 | 2.0 | 4.0 | 0.00 | 0.00 | 0.00 | 54 | 1016.3 |
| 20260510103517 | 59 | 30 | 1.0 | 4.0 | 0.00 | 0.00 | 0.00 | 55 | 1016.2 |
| 20260510102517 | 59 | 35 | 2.0 | 5.0 | 0.00 | 0.00 | 0.00 | 56 | 1016.0 |
| 20260510101518 | 59 | 31 | 2.0 | 4.0 | 0.00 | 0.00 | 0.00 | 58 | 1015.9 |
| 20260510100518 | 60 | 35 | 2.0 | 5.0 | 0.00 | 0.00 | 0.00 | 59 | 1015.6 |
| 20260510095518 | 60 | 30 | 2.0 | 5.0 | 0.00 | 0.00 | 0.00 | 60 | 1015.2 |
| 20260510094518 | 60 | 43 | 3.0 | 5.0 | 0.00 | 0.00 | 0.00 | 62 | 1015.0 |
| 20260510093518 | 60 | 42 | 3.0 | 6.0 | 0.00 | 0.00 | 0.00 | 64 | 1014.8 |
| 20260510092516 | 61 | 42 | 4.0 | 6.0 | 0.00 | 0.00 | 0.00 | 67 | 1014.5 |
| 20260510091515 | 61 | 30 | 4.0 | 6.0 | 0.00 | 0.00 | 0.00 | 69 | 1014.4 |
| 20260510090516 | 61 | 35 | 3.0 | 6.0 | 0.00 | 0.00 | 0.00 | 71 | 1014.4 |
| 20260510085516 | 61 | 40 | 3.0 | 5.0 | 0.00 | 0.00 | 0.00 | 74 | 1014.2 |
| 20260510084516 | 61 | 39 | 3.0 | 6.0 | 0.00 | 0.00 | 0.00 | 73 | 1013.9 |
| 20260510083516 | 61 | 36 | 2.0 | 3.0 | 0.00 | 0.00 | 0.00 | 76 | 1013.9 |
| 20260510082516 | 61 | 37 | 2.0 | 4.0 | 0.00 | 0.00 | 0.00 | 77 | 1013.7 |
| 20260510081516 | 62 | 29 | 2.0 | 3.0 | 0.00 | 0.00 | 0.00 | 75 | 1013.7 |
| 20260510080516 | 62 | 3 | 1.0 | 3.0 | 0.00 | 0.00 | 0.00 | 74 | 1013.8 |
| 20260510075516 | 62 | 312 | 2.0 | 3.0 | 0.00 | 0.00 | 0.00 | 76 | 1013.8 |
| 20260510074517 | 62 | 336 | 1.0 | 3.0 | 0.00 | 0.00 | 0.00 | 78 | 1013.5 |
| 20260510073517 | 62 | 358 | 1.0 | 2.0 | 0.00 | 0.00 | 0.00 | 79 | 1013.6 |
| 20260510072517 | 62 | 3 | 2.0 | 2.0 | 0.00 | 0.00 | 0.00 | 80 | 1013.5 |
| 20260510071517 | 62 | 351 | 2.0 | 4.0 | 0.00 | 0.00 | 0.00 | 79 | 1013.3 |
| 20260510070518 | 62 | 19 | 1.0 | 2.0 | 0.00 | 0.00 | 0.00 | 80 | 1013.7 |
| 20260510065518 | 62 | 267 | 1.0 | 3.0 | 0.00 | 0.00 | 0.00 | 83 | 1013.8 |
| 20260510064518 | 63 | 259 | 2.0 | 3.0 | 0.00 | 0.00 | 0.00 | 81 | 1013.7 |
| 20260510063518 | 63 | 76 | 1.0 | 3.0 | 0.00 | 0.00 | 0.00 | 80 | 1013.2 |
| 20260510062518 | 63 | 27 | 0.0 | 2.0 | 0.00 | 0.00 | 0.00 | 79 | 1013.5 |
| 20260510061518 | 64 | 58 | 1.0 | 2.0 | 0.00 | 0.00 | 0.00 | 78 | 1013.3 |
| 20260510060516 | 64 | 53 | 2.0 | 5.0 | 0.00 | 0.00 | 0.00 | 78 | 1013.1 |
| 20260510055516 | 64 | 33 | 1.0 | 5.0 | 0.00 | 0.00 | 0.00 | 78 | 1013.2 |
| 20260510054516 | 64 | 16 | 1.0 | 4.0 | 0.00 | 0.00 | 0.00 | 78 | 1012.9 |
| 20260510053516 | 64 | 319 | 2.0 | 4.0 | 0.00 | 0.00 | 0.00 | 79 | 1013.0 |
| 20260510052516 | 64 | 355 | 1.0 | 3.0 | 0.00 | 0.00 | 0.00 | 79 | 1012.8 |
| 20260510051516 | 64 | 353 | 1.0 | 3.0 | 0.00 | 0.00 | 0.00 | 80 | 1012.6 |
| 20260510050517 | 64 | 313 | 1.0 | 3.0 | 0.00 | 0.00 | 0.00 | 81 | 1012.5 |
| 20260510045517 | 64 | 300 | 3.0 | 4.0 | 0.00 | 0.00 | 0.00 | 81 | 1012.4 |
| 20260510044518 | 64 | 16 | 1.0 | 2.0 | 0.00 | 0.00 | 0.00 | 81 | 1012.2 |
| 20260510043518 | 65 | 349 | 1.0 | 2.0 | 0.00 | 0.00 | 0.00 | 80 | 1012.0 |
| 20260510042517 | 65 | 57 | 1.0 | 4.0 | 0.00 | 0.00 | 0.00 | 79 | 1011.7 |
| 20260510041517 | 65 | 315 | 1.0 | 2.0 | 0.00 | 0.00 | 0.00 | 78 | 1011.8 |
| 20260510040518 | 65 | 301 | 1.0 | 2.0 | 0.00 | 0.00 | 0.00 | 78 | 1011.7 |
| 20260510035515 | 66 | 65 | 1.0 | 3.0 | 0.00 | 0.00 | 0.00 | 76 | 1011.5 |
| 20260510034516 | 66 | 57 | 1.0 | 3.0 | 0.00 | 0.00 | 0.00 | 76 | 1011.4 |
| 20260510033515 | 66 | 100 | 0.0 | 2.0 | 0.00 | 0.00 | 0.00 | 75 | 1011.2 |
| 20260510032515 | 66 | 78 | 0.0 | 2.0 | 0.00 | 0.00 | 0.00 | 74 | 1011.1 |
| 20260510031516 | 66 | 101 | 0.0 | 1.0 | 0.00 | 0.00 | 0.00 | 74 | 1011.2 |
| 20260510030516 | 66 | 187 | 0.0 | 1.0 | 0.00 | 0.00 | 0.00 | 74 | 1011.1 |
| 20260510025516 | 67 | 47 | 1.0 | 2.0 | 0.00 | 0.00 | 0.00 | 74 | 1010.9 |
| 20260510024516 | 67 | 281 | 1.0 | 3.0 | 0.00 | 0.00 | 0.00 | 72 | 1010.9 |
| 20260510023516 | 67 | 22 | 1.0 | 4.0 | 0.00 | 0.00 | 0.00 | 72 | 1010.5 |
| 20260510022517 | 68 | 43 | 2.0 | 5.0 | 0.00 | 0.00 | 0.00 | 71 | 1010.3 |
| 20260510021517 | 68 | 16 | 2.0 | 4.0 | 0.00 | 0.00 | 0.00 | 69 | 1010.2 |
| 20260510020517 | 69 | 351 | 3.0 | 5.0 | 0.00 | 0.00 | 0.00 | 67 | 1009.9 |
| 20260510015517 | 70 | 341 | 3.0 | 4.0 | 0.00 | 0.00 | 0.00 | 65 | 1009.7 |
| 20260510014517 | 71 | 348 | 5.0 | 8.0 | 0.00 | 0.00 | 0.00 | 62 | 1009.4 |
| 20260510013517 | 74 | 357 | 8.0 | 14.0 | 0.00 | 0.01 | 0.00 | 59 | 1008.9 |
| 20260510012518 | 75 | 33 | 0.0 | 2.0 | 0.00 | 0.03 | 0.00 | 50 | 1007.7 |
| 20260510011516 | 76 | 185 | 1.0 | 3.0 | 0.00 | 0.05 | 0.00 | 48 | 1007.7 |
| 20260510010516 | 76 | 201 | 1.0 | 3.0 | 0.00 | 0.07 | 0.00 | 48 | 1007.7 |
| 20260510005516 | 77 | 187 | 2.0 | 5.0 | 0.00 | 0.11 | 0.00 | 47 | 1007.6 |
| 20260510004516 | 77 | 195 | 0.0 | 2.0 | 0.00 | 0.19 | 0.00 | 47 | 1007.6 |
| 20260510003516 | 78 | 203 | 1.0 | 4.0 | 0.00 | 0.25 | 0.00 | 46 | 1007.4 |
| 20260510002515 | 79 | 210 | 0.0 | 2.0 | 0.00 | 0.29 | 0.00 | 46 | 1007.6 |
| 20260510001516 | 79 | 218 | 1.0 | 3.0 | 0.00 | 0.32 | 0.00 | 44 | 1007.4 |
| 20260510000515 | 79 | 217 | 1.0 | 3.0 | 0.00 | 0.36 | 0.00 | 44 | 1007.5 |
| 20260509235515 | 80 | 246 | 0.0 | 2.0 | 0.00 | 0.37 | 0.00 | 43 | 1007.6 |
| 20260509234516 | 81 | 218 | 1.0 | 3.0 | 0.00 | 0.37 | 0.00 | 42 | 1007.5 |
| 20260509233516 | 82 | 278 | 0.0 | 2.0 | 0.00 | 0.37 | 0.00 | 41 | 1007.5 |
| 20260509232517 | 82 | 279 | 1.0 | 4.0 | 0.00 | 0.37 | 0.00 | 39 | 1007.5 |